This is the latest recevied weather packets stored in our database for station/object EA5AER-5. If no packets are shown the sender has not sent any weather packets the latest 1 day(s).
| Time | Temp. | Humidity | Pressure | Rain* | Wind** | Luminosity | Snow |
|---|---|---|---|---|---|---|---|
| 1778103203 | 16.11° C | 77% | 1010.4 hPa | 0 mm | - | 0 W/m² | - |
| 1778091072 | 18.33° C | 66% | 1008.9 hPa | 0 mm | - | 62 W/m² | - |
| 1778086007 | 18.33° C | 66% | 1009.8 hPa | 0 mm | - | 267 W/m² | - |
| 1778081071 | 18.33° C | 66% | 1009.8 hPa | 0 mm | - | 267 W/m² | - |
| 1778079776 | 18.33° C | 66% | 1009.8 hPa | 0 mm | - | 267 W/m² | - |
| 1778073666 | 18.89° C | 65% | 1010.2 hPa | 0 mm | - | 383 W/m² | - |
| 1778065335 | 18.89° C | 67% | 1010.7 hPa | 0 mm | - | 700 W/m² | - |
| 1778060567 | 18.33° C | 69% | 1010.6 hPa | 0 mm | - | 281 W/m² | - |
| 1778056942 | 17.78° C | 71% | 1009.4 hPa | 0 mm | - | 39 W/m² | - |
| 1778055690 | 17.78° C | 71% | 1009.4 hPa | 0 mm | - | 39 W/m² | - |
| 1778054566 | 17.78° C | 71% | 1009.4 hPa | 0 mm | - | 39 W/m² | - |
| 1778053247 | 17.78° C | 71% | 1009.4 hPa | 0 mm | - | 39 W/m² | - |
| 1778048459 | 17.78° C | 71% | 1009.4 hPa | 0 mm | - | 39 W/m² | - |
| 1778046092 | 17.78° C | 71% | 1009.4 hPa | 0 mm | - | 39 W/m² | - |
| 1778044908 | 17.78° C | 68% | 1009.2 hPa | 0 mm | - | 0 W/m² | - |
| 1778042478 | 17.78° C | 70% | 1009 hPa | 0 mm | - | 0 W/m² | - |
| 1778041359 | 17.78° C | 71% | 1009 hPa | 0 mm | - | 0 W/m² | - |
| 1778038974 | 18.33° C | 74% | 1009 hPa | 0 mm | - | 0 W/m² | - |
| 1778037709 | 18.33° C | 75% | 1008.9 hPa | 0 mm | - | 0 W/m² | - |
| 1778036553 | 18.33° C | 77% | 1008.9 hPa | 0 mm | - | 0 W/m² | - |
| 1778035269 | 18.33° C | 77% | 1009 hPa | 0 mm | - | 0 W/m² | - |
| 1778033985 | 18.33° C | 77% | 1009 hPa | 0 mm | - | 0 W/m² | - |
| 1778032717 | 18.33° C | 80% | 1009 hPa | 0 mm | - | 0 W/m² | - |
| 1778031382 | 18.33° C | 80% | 1009 hPa | 0 mm | - | 0 W/m² | - |
| 1778028991 | 18.33° C | 83% | 1009 hPa | 0 mm | - | 0 W/m² | - |
* Rain latest hour (hover to see other rain measurements)
** Current wind speed in m/s (hover to see current wind gust speed)